Flag for Germany Past Weather in Neustadt an der Weinstraße, Rhineland-Palatinate, Germany — Yesterday and Last 2 Weeks

Now
57 °F

Passing clouds.


Feels Like: 57 °F
Forecast: 58 / 74 °F
Wind: No wind

Location: Ramstein

Current Time: Jul 30, 2016 at 5:44:01 AM

Latest Report: Jul 30, 2016 at 4:58 AM


Visibility: N/A

Pressure: 29.94 "Hg

Humidity: 100%

Dew Point: 57 °F

Location of Neustadt an der WeinstraßeLocation

Past Weather in Neustadt an der Weinstraße — Graph

°F

Neustadt an der Weinstraße Temperature Yesterday

Maximum temperature yesterday: 78 °F (at 3:58 PM)
Minimum temperature yesterday: 62 °F (at 4:58 AM)
Average temperature yesterday: 70 °F

High & Low Weather Summary for the Past Weeks

 TemperatureHumidityPressure
High93 °F (Jul 20, 3:58 PM)100% (Jul 15, 3:58 AM)30.33 "Hg (Jul 15, 3:58 AM)
Low43 °F (Jul 16, 4:59 AM)30% (Jul 20, 3:58 PM)29.89 "Hg (Jul 20, 11:58 PM)
Average69 °F78%30.08 "Hg
* Reported Jul 15 3:58 AM — Jul 30 3:58 AM, Neustadt an der Weinstraße, Weather by CustomWeather, © 2016

Note: Actual official high and low records may vary slightly from our data, if they occured in-between our weather recording intervals... More about our weather records

Advertising

Neustadt an der Weinstraße Weather History for the Previous 24 Hours

Scroll right to see more
 ConditionsComfort  
Time TempWeatherWind HumidityBarometerVisibility
3:58 AM
Sat, Jul 30
55 °FClear.No wind100%29.94 "HgN/A
2:58 AM55 °FClear.No wind100%29.95 "HgN/A
1:58 AM59 °FClear.No wind100%29.95 "HgN/A
12:58 AM59 °FClear.No wind100%29.95 "HgN/A
11:58 PM
Fri, Jul 29
63 °FClear.No wind88%29.95 "HgN/A
10:58 PM67 °FClear.No wind73%29.94 "HgN/A
9:58 PM69 °FSunny.3 mph68%29.93 "HgN/A
8:58 PM72 °FPassing clouds.7 mph61%29.92 "HgN/A
7:58 PM75 °FPassing clouds.12 mph56%29.91 "HgN/A
6:58 PM75 °FPassing clouds.9 mph57%29.91 "HgN/A
5:58 PM78 °FScattered clouds.10 mph54%29.91 "HgN/A
4:58 PM77 °FScattered clouds.18 mph54%29.92 "HgN/A
3:58 PM78 °FScattered clouds.16 mph53%29.92 "HgN/A
2:58 PM76 °FScattered clouds.14 mph59%29.93 "HgN/A
2:03 PM73 °FScattered clouds.14 mph65%29.96 "HgN/A
1:58 PM75 °FScattered clouds.17 mph62%29.94 "HgN/A
12:58 PM73 °FPartly sunny.16 mph65%29.96 "HgN/A
11:58 AM73 °FScattered clouds.14 mph67%29.96 "HgN/A
10:58 AM70 °FBroken clouds.12 mph73%29.97 "HgN/A
9:58 AM70 °FPartly sunny.13 mph75%29.98 "HgN/A
8:58 AM67 °FPartly sunny.8 mph81%29.98 "HgN/A
7:58 AM64 °FPartly sunny.6 mph89%29.98 "HgN/A
6:58 AM63 °FPartly sunny.6 mph94%29.98 "HgN/A
5:58 AM63 °FPartly cloudy.1 mph94%29.98 "HgN/A
Weather by CustomWeather, © 2016

See weather overviewHow to use our weather pages